Weather History for Americus, GA

Change the Weather History Date:

Wednesday, August 28, 2013

  Actual Average (KABY) Record (KABY)
Temperature  
Mean Temperature 74 °F 81 °F  
Max Temperature 87 °F 91 °F 100 °F (1959)
Min Temperature 62 °F 72 °F 61 °F (1969)
Degree Days  
Heating Degree Days 0 0  
Month to date heating degree days 0  
Since 1 June heating degree days 0  
Since 1 July heating degree days 0  
Cooling Degree Days 10 16  
Month to date cooling degree days 474  
Year to date cooling degree days 1920  
Since 1 June cooling degree days 1480  
Growing Degree Days 24 (Base 50)    
Moisture  
Dew Point 66 °F    
Average Humidity 74    
Maximum Humidity 100    
Minimum Humidity 46    
Precipitation  
Precipitation 0.00 in - 1.03 in (2003)
Sea Level Pressure  
Sea Level Pressure 30.06 in    
Wind  
Wind Speed 2 mph (West)    
Max Wind Speed 12 mph    
Max Gust Speed 17 mph    
Visibility 9 miles    
Events      
T = Trace of Precipitation, MM = Missing Value Source: NWS Daily Summary

Daily Weather History Graph

Daily Weather History Graph

Search for Another Location

Airport:

Trip Planner

Search our weather history database for the weather conditions in past years. The results will help you decide how hot, cold, wet, or windy it might be!

Date:

Astronomy

Aug. 28, 2013 Rise Set
Actual Time 7:09 AM EDT 8:05 PM EDT
Civil Twilight 6:44 AM EDT 8:30 PM EDT
Nautical Twilight 6:14 AM EDT 9:00 PM EDT
Astronomical Twilight 5:44 AM EDT 9:30 PM EDT
Moon 12:25 AM EDT (8/28) 2:32 PM EDT (8/28)
Length of Visible Light 13h 46m
Length of Day
12h 55m
Waning Gibbous, 47% of the Moon is Illuminated
Aug 28
Waning Gibbous
Sep 5
New
Sep 12
First Quarter
Sep 19
Full
Sep 26
Last Quarter

Hourly Weather History & Observations

Time (EDT) Temp. Heat Index Dew Point Humidity Pressure Visibility Wind Dir Wind Speed Gust Speed Precip Events Conditions
12:15 AM 68.0 °F - 68.0 °F 100% 30.08 in 5.0 mi Calm Calm - N/A   Clear
12:35 AM 68.0 °F - 68.0 °F 100% 30.08 in 7.0 mi Calm Calm - N/A   Clear
12:55 AM 66.2 °F - 66.2 °F 100% 30.08 in 5.0 mi Calm Calm - N/A   Clear
1:15 AM 66.2 °F - 66.2 °F 100% 30.08 in 4.0 mi Calm Calm - N/A   Clear
1:35 AM 68.0 °F - 68.0 °F 100% 30.08 in 5.0 mi Calm Calm - N/A   Clear
1:55 AM 68.0 °F - 66.2 °F 94% 30.07 in 10.0 mi Calm Calm - N/A   Clear
2:15 AM 66.2 °F - 66.2 °F 100% 30.07 in 7.0 mi Calm Calm - N/A   Clear
2:35 AM 64.4 °F - 64.4 °F 100% 30.07 in 5.0 mi Calm Calm - N/A   Clear
2:55 AM 64.4 °F - 64.4 °F 100% 30.07 in 5.0 mi Calm Calm - N/A   Clear
3:15 AM 66.2 °F - 66.2 °F 100% 30.06 in 7.0 mi Calm Calm - N/A   Clear
3:35 AM 64.4 °F - 64.4 °F 100% 30.06 in 7.0 mi Calm Calm - N/A   Clear
3:55 AM 64.4 °F - 64.4 °F 100% 30.05 in 5.0 mi Calm Calm - N/A   Clear
4:15 AM 64.4 °F - 64.4 °F 100% 30.05 in 10.0 mi Calm Calm - N/A   Clear
4:35 AM 64.4 °F - 64.4 °F 100% 30.05 in 7.0 mi Calm Calm - N/A   Clear
4:55 AM 64.4 °F - 64.4 °F 100% 30.05 in 7.0 mi Calm Calm - N/A   Clear
5:15 AM 64.4 °F - 64.4 °F 100% 30.05 in 4.0 mi Calm Calm - N/A   Clear
5:35 AM 64.4 °F - 64.4 °F 100% 30.05 in 5.0 mi Calm Calm - N/A   Clear
5:55 AM 64.4 °F - 64.4 °F 100% 30.05 in 7.0 mi Calm Calm - N/A   Clear
6:15 AM 62.6 °F - 62.6 °F 100% 30.05 in 7.0 mi Calm Calm - N/A   Clear
6:35 AM 64.4 °F - 64.4 °F 100% 30.06 in 10.0 mi Calm Calm - N/A   Clear
6:55 AM 64.4 °F - 64.4 °F 100% 30.07 in 7.0 mi Calm Calm - N/A   Clear
7:15 AM 64.4 °F - 62.6 °F 94% 30.07 in 5.0 mi Calm Calm - N/A   Clear
7:35 AM 64.4 °F - 64.4 °F 100% 30.07 in 4.0 mi Calm Calm - N/A   Clear
7:55 AM 64.4 °F - 64.4 °F 100% 30.08 in 10.0 mi Calm Calm - N/A   Clear
8:15 AM 68.0 °F - 66.2 °F 94% 30.08 in 7.0 mi Calm Calm - N/A   Clear
8:35 AM 69.8 °F - 68.0 °F 94% 30.08 in 10.0 mi Calm Calm - N/A   Clear
8:55 AM 71.6 °F - 68.0 °F 88% 30.09 in 10.0 mi Calm Calm - N/A   Clear
9:15 AM 73.4 °F - 68.0 °F 83% 30.09 in 10.0 mi WNW 3.5 mph - N/A   Clear
9:35 AM 77.0 °F - 66.2 °F 69% 30.10 in 10.0 mi WSW 3.5 mph - N/A   Clear
9:55 AM 78.8 °F - 66.2 °F 65% 30.10 in 10.0 mi SW 3.5 mph - N/A   Clear
10:15 AM 78.8 °F - 68.0 °F 69% 30.10 in 10.0 mi Calm Calm - N/A   Clear
10:35 AM 80.6 °F 83.2 °F 68.0 °F 65% 30.10 in 10.0 mi SSW 4.6 mph - N/A   Clear
10:55 AM 80.6 °F 82.7 °F 66.2 °F 61% 30.10 in 10.0 mi Calm Calm - N/A   Clear
11:15 AM 80.6 °F 82.7 °F 66.2 °F 61% 30.10 in 10.0 mi WSW 5.8 mph - N/A   Clear
11:35 AM 82.4 °F 85.4 °F 68.0 °F 62% 30.10 in 10.0 mi SW 5.8 mph - N/A   Clear
11:55 AM 82.4 °F 84.6 °F 66.2 °F 58% 30.10 in 10.0 mi WSW 3.5 mph - N/A   Clear
12:15 PM 82.4 °F 84.6 °F 66.2 °F 58% 30.10 in 10.0 mi West 3.5 mph - N/A   Scattered Clouds
12:35 PM 82.4 °F 84.6 °F 66.2 °F 58% 30.10 in 10.0 mi NW 5.8 mph - N/A   Clear
12:55 PM 82.4 °F 83.9 °F 64.4 °F 54% 30.09 in 10.0 mi WNW 3.5 mph - N/A   Clear
1:15 PM 84.2 °F 86.6 °F 66.2 °F 55% 30.09 in 10.0 mi WNW 4.6 mph - N/A   Clear
1:35 PM 86.0 °F 88.2 °F 66.2 °F 51% 30.09 in 10.0 mi West 5.8 mph - N/A   Scattered Clouds
1:55 PM 86.0 °F 87.3 °F 64.4 °F 48% 30.09 in 10.0 mi WNW 8.1 mph - N/A   Scattered Clouds
2:15 PM 86.0 °F 88.2 °F 66.2 °F 51% 30.08 in 10.0 mi West 5.8 mph - N/A   Mostly Cloudy
2:35 PM 86.0 °F 87.3 °F 64.4 °F 48% 30.07 in 10.0 mi Calm Calm - N/A   Scattered Clouds
2:55 PM 86.0 °F 87.3 °F 64.4 °F 48% 30.06 in 10.0 mi SW 5.8 mph - N/A   Scattered Clouds
3:15 PM 86.0 °F 87.3 °F 64.4 °F 48% 30.06 in 10.0 mi WSW 4.6 mph - N/A   Clear
3:35 PM 87.8 °F 89.4 °F 64.4 °F 46% 30.05 in 10.0 mi NW 5.8 mph - N/A   Scattered Clouds
3:55 PM 87.8 °F 89.4 °F 64.4 °F 46% 30.04 in 10.0 mi WSW 6.9 mph - N/A   Mostly Cloudy
4:15 PM 87.8 °F 89.4 °F 64.4 °F 46% 30.04 in 10.0 mi West 8.1 mph - N/A   Mostly Cloudy
4:35 PM 87.8 °F 89.4 °F 64.4 °F 46% 30.03 in 10.0 mi Calm Calm - N/A   Scattered Clouds
4:55 PM 87.8 °F 89.4 °F 64.4 °F 46% 30.03 in 10.0 mi West 11.5 mph 17.3 mph N/A   Clear
5:15 PM 87.8 °F 89.4 °F 64.4 °F 46% 30.02 in 10.0 mi West 8.1 mph - N/A   Scattered Clouds
5:35 PM 87.8 °F 89.4 °F 64.4 °F 46% 30.02 in 10.0 mi West 5.8 mph - N/A   Scattered Clouds
5:55 PM 87.8 °F 89.4 °F 64.4 °F 46% 30.02 in 10.0 mi West 4.6 mph - N/A   Scattered Clouds
6:15 PM 87.8 °F 89.4 °F 64.4 °F 46% 30.02 in 10.0 mi West 8.1 mph - N/A   Scattered Clouds
6:35 PM 87.8 °F 89.4 °F 64.4 °F 46% 30.02 in 10.0 mi WNW 6.9 mph - N/A   Clear
6:55 PM 86.0 °F 88.2 °F 66.2 °F 51% 30.02 in 10.0 mi WNW 5.8 mph - N/A   Clear
7:15 PM 86.0 °F 89.4 °F 68.0 °F 55% 30.02 in 10.0 mi West 4.6 mph - N/A   Clear
7:35 PM 86.0 °F 89.4 °F 68.0 °F 55% 30.02 in 10.0 mi West 4.6 mph - N/A   Mostly Cloudy
7:55 PM 82.4 °F 85.4 °F 68.0 °F 62% 30.02 in 10.0 mi West 4.6 mph - N/A   Scattered Clouds
8:15 PM 80.6 °F 83.9 °F 69.8 °F 70% 30.02 in 10.0 mi Calm Calm - N/A   Clear
8:35 PM 78.8 °F - 69.8 °F 74% 30.03 in 10.0 mi West 3.5 mph - N/A   Clear
8:55 PM 80.6 °F 83.2 °F 68.0 °F 65% 30.03 in 10.0 mi West 4.6 mph - N/A   Clear
9:15 PM 78.8 °F - 68.0 °F 69% 30.03 in 10.0 mi West 4.6 mph - N/A   Clear
9:35 PM 78.8 °F - 69.8 °F 74% 30.03 in 10.0 mi WNW 4.6 mph - N/A   Clear
9:55 PM 78.8 °F - 69.8 °F 74% 30.04 in 10.0 mi West 3.5 mph - N/A   Clear
10:15 PM 78.8 °F - 68.0 °F 69% 30.05 in 10.0 mi Calm Calm - N/A   Clear
10:35 PM 77.0 °F - 68.0 °F 74% 30.05 in 10.0 mi West 3.5 mph - N/A   Clear
10:55 PM 77.0 °F - 68.0 °F 74% 30.05 in 10.0 mi Calm Calm - N/A   Clear
11:15 PM 77.0 °F - 68.0 °F 74% 30.05 in 10.0 mi West 3.5 mph - N/A   Clear
11:35 PM 75.2 °F - 68.0 °F 78% 30.05 in 10.0 mi West 3.5 mph - N/A   Clear
11:55 PM 71.6 °F - 68.0 °F 88% 30.05 in 10.0 mi Calm Calm - N/A   Clear